Meteo pe oră la 8 Marta

Astăzi, 13 Iunie, Duminică

Timp Temperatura Precipitaţii Vânt Presiune Umiditate
00:00 +15°C° 0 mm 1 m/s 736 mmHg 86%
01:00 +14°C° 0 mm 1 m/s 736 mmHg 87%
02:00 +14°C° 0 mm 1 m/s 736 mmHg 87%
03:00 +14°C° 0 mm 1 m/s 736 mmHg 87%
04:00 +14°C° 0 mm 1 m/s 736 mmHg 87%
05:00 +15°C° 0 mm 1 m/s 736 mmHg 86%
06:00 +16°C° 0 mm 1 m/s 736 mmHg 85%
07:00 +18°C° 0 mm 1 m/s 736 mmHg 81%
08:00 +19°C° 0 mm 1 m/s 736 mmHg 77%
09:00 +20°C° 0 mm 2 m/s 736 mmHg 73%
10:00 +20°C° 0.1 mm 2 m/s 736 mmHg 70%
11:00 +21°C° 0.1 mm 2 m/s 736 mmHg 67%
12:00 +22°C° 0.1 mm 3 m/s 736 mmHg 64%
13:00 +24°C° 0.2 mm 3 m/s 736 mmHg 63%
14:00 +24°C° 0.2 mm 3 m/s 736 mmHg 61%
15:00 +24°C° 0.2 mm 3 m/s 736 mmHg 59%
16:00 +24°C° 0.1 mm 3 m/s 736 mmHg 63%
17:00 +24°C° 0.1 mm 3 m/s 736 mmHg 67%
18:00 +22°C° 0.1 mm 3 m/s 736 mmHg 72%
19:00 +21°C° 0 mm 2 m/s 736 mmHg 75%
20:00 +19°C° 0 mm 2 m/s 737 mmHg 79%
21:00 +18°C° 0 mm 2 m/s 737 mmHg 83%
22:00 +17°C° 0 mm 2 m/s 737 mmHg 85%
23:00 +17°C° 0 mm 2 m/s 737 mmHg 88%

Mâine, 14 Iunie, Luni

Timp Temperatura Precipitaţii Vânt Presiune Umiditate
00:00 +16°C° 0 mm 2 m/s 738 mmHg 91%
01:00 +16°C° 0 mm 2 m/s 738 mmHg 92%
02:00 +16°C° 0 mm 2 m/s 738 mmHg 93%
03:00 +15°C° 0 mm 2 m/s 738 mmHg 93%
04:00 +16°C° 0 mm 2 m/s 739 mmHg 93%
05:00 +16°C° 0 mm 2 m/s 739 mmHg 92%
06:00 +18°C° 0 mm 1 m/s 740 mmHg 91%
07:00 +19°C° 0 mm 1 m/s 740 mmHg 85%
08:00 +20°C° 0 mm 2 m/s 740 mmHg 80%
09:00 +21°C° 0 mm 2 m/s 741 mmHg 74%
10:00 +23°C° 0 mm 1 m/s 741 mmHg 69%
11:00 +24°C° 0 mm 1 m/s 741 mmHg 65%
12:00 +25°C° 0 mm 1 m/s 742 mmHg 61%
13:00 +26°C° 0 mm 1 m/s 742 mmHg 59%
14:00 +26°C° 0 mm 1 m/s 742 mmHg 57%
15:00 +26°C° 0 mm 1 m/s 742 mmHg 56%
16:00 +26°C° 0 mm 1 m/s 742 mmHg 58%
17:00 +26°C° 0 mm 1 m/s 741 mmHg 60%
18:00 +24°C° 0 mm 0 m/s 741 mmHg 62%
19:00 +24°C° 0.1 mm 1 m/s 741 mmHg 68%
20:00 +22°C° 0.1 mm 1 m/s 741 mmHg 73%
21:00 +21°C° 0.1 mm 1 m/s 741 mmHg 79%
22:00 +20°C° 0 mm 1 m/s 741 mmHg 81%
23:00 +20°C° 0 mm 1 m/s 741 mmHg 83%

Poimâine, 15 Iunie, Marţi

Timp Temperatura Precipitaţii Vânt Presiune Umiditate
00:00 +19°C° 0 mm 1 m/s 741 mmHg 85%
01:00 +19°C° 0 mm 1 m/s 741 mmHg 86%
02:00 +18°C° 0 mm 1 m/s 741 mmHg 87%
03:00 +18°C° 0 mm 1 m/s 741 mmHg 88%
04:00 +18°C° 0 mm 1 m/s 741 mmHg 87%
05:00 +19°C° 0 mm 1 m/s 741 mmHg 86%
06:00 +20°C° 0 mm 1 m/s 741 mmHg 86%
07:00 +21°C° 0.1 mm 1 m/s 741 mmHg 82%
08:00 +22°C° 0.1 mm 1 m/s 741 mmHg 79%
09:00 +23°C° 0.1 mm 1 m/s 741 mmHg 76%
10:00 +24°C° 0.3 mm 1 m/s 741 mmHg 72%
11:00 +25°C° 0.3 mm 1 m/s 741 mmHg 68%
12:00 +26°C° 0.3 mm 1 m/s 740 mmHg 64%
13:00 +26°C° 0.2 mm 1 m/s 740 mmHg 64%
14:00 +26°C° 0.2 mm 1 m/s 740 mmHg 63%
15:00 +26°C° 0.2 mm 1 m/s 739 mmHg 63%
16:00 +26°C° 0.1 mm 1 m/s 739 mmHg 65%
17:00 +26°C° 0.1 mm 1 m/s 739 mmHg 66%
18:00 +26°C° 0.1 mm 1 m/s 738 mmHg 68%
19:00 +24°C° 1.2 mm 1 m/s 738 mmHg 74%
20:00 +22°C° 1.2 mm 1 m/s 738 mmHg 80%
21:00 +20°C° 1.2 mm 1 m/s 738 mmHg 86%
22:00 +20°C° 0.3 mm 1 m/s 738 mmHg 87%
23:00 +18°C° 0.3 mm 2 m/s 738 mmHg 88%

16 Iunie, Miercuri

Timp Temperatura Precipitaţii Vânt Presiune Umiditate
00:00 +18°C° 0.3 mm 2 m/s 738 mmHg 89%
01:00 +18°C° 0 mm 2 m/s 738 mmHg 90%
02:00 +17°C° 0 mm 2 m/s 737 mmHg 91%
03:00 +17°C° 0 mm 3 m/s 737 mmHg 92%
04:00 +17°C° 0 mm 3 m/s 738 mmHg 92%
05:00 +17°C° 0 mm 2 m/s 738 mmHg 92%
06:00 +18°C° 0 mm 2 m/s 738 mmHg 91%
07:00 +19°C° 0 mm 3 m/s 738 mmHg 86%
08:00 +20°C° 0 mm 3 m/s 738 mmHg 81%
09:00 +22°C° 0 mm 4 m/s 739 mmHg 77%
10:00 +22°C° 0.3 mm 4 m/s 739 mmHg 72%
11:00 +23°C° 0.3 mm 5 m/s 739 mmHg 68%
12:00 +25°C° 0.3 mm 5 m/s 739 mmHg 64%
13:00 +25°C° 0 mm 5 m/s 739 mmHg 63%
14:00 +25°C° 0 mm 5 m/s 740 mmHg 61%
15:00 +25°C° 0 mm 5 m/s 740 mmHg 60%
16:00 +23°C° 0.1 mm 5 m/s 740 mmHg 65%
17:00 +23°C° 0.1 mm 5 m/s 740 mmHg 71%
18:00 +22°C° 0.1 mm 5 m/s 741 mmHg 77%
19:00 +20°C° 0 mm 4 m/s 741 mmHg 80%
20:00 +19°C° 0 mm 3 m/s 742 mmHg 84%
21:00 +18°C° 0 mm 3 m/s 742 mmHg 87%
22:00 +17°C° 0 mm 3 m/s 742 mmHg 84%
23:00 +16°C° 0 mm 3 m/s 743 mmHg 81%

17 Iunie, Joi

Timp Temperatura Precipitaţii Vânt Presiune Umiditate
00:00 +14°C° 0 mm 3 m/s 743 mmHg 78%
01:00 +13°C° 0 mm 3 m/s 744 mmHg 76%
02:00 +12°C° 0 mm 3 m/s 744 mmHg 75%
03:00 +12°C° 0 mm 3 m/s 745 mmHg 74%
04:00 +12°C° 0 mm 3 m/s 745 mmHg 76%
05:00 +12°C° 0 mm 3 m/s 745 mmHg 77%
06:00 +12°C° 0 mm 3 m/s 746 mmHg 79%
07:00 +14°C° 0 mm 3 m/s 746 mmHg 74%
08:00 +17°C° 0 mm 4 m/s 747 mmHg 69%
09:00 +18°C° 0 mm 4 m/s 747 mmHg 64%
10:00 +19°C° 0 mm 4 m/s 747 mmHg 61%
11:00 +20°C° 0 mm 4 m/s 747 mmHg 58%
12:00 +21°C° 0 mm 5 m/s 748 mmHg 55%
13:00 +21°C° 0 mm 5 m/s 748 mmHg 54%
14:00 +21°C° 0 mm 5 m/s 748 mmHg 54%
15:00 +21°C° 0 mm 5 m/s 748 mmHg 53%
16:00 +21°C° 0 mm 4 m/s 748 mmHg 57%
17:00 +21°C° 0 mm 4 m/s 748 mmHg 61%
18:00 +20°C° 0 mm 3 m/s 748 mmHg 65%
19:00 +19°C° 0 mm 3 m/s 748 mmHg 68%
20:00 +17°C° 0 mm 3 m/s 748 mmHg 72%
21:00 +16°C° 0 mm 3 m/s 748 mmHg 76%
22:00 +14°C° 0 mm 3 m/s 748 mmHg 77%
23:00 +13°C° 0 mm 3 m/s 748 mmHg 78%

18 Iunie, Vineri

Timp Temperatura Precipitaţii Vânt Presiune Umiditate
00:00 +13°C° 0 mm 3 m/s 749 mmHg 80%
01:00 +12°C° 0 mm 3 m/s 749 mmHg 81%
02:00 +12°C° 0 mm 3 m/s 749 mmHg 83%
03:00 +12°C° 0 mm 3 m/s 749 mmHg 84%
04:00 +13°C° 0 mm 2 m/s 750 mmHg 84%
05:00 +14°C° 0 mm 2 m/s 750 mmHg 85%
06:00 +14°C° 0 mm 2 m/s 750 mmHg 85%
07:00 +16°C° 0 mm 2 m/s 750 mmHg 79%
08:00 +18°C° 0 mm 2 m/s 750 mmHg 73%
09:00 +19°C° 0 mm 3 m/s 751 mmHg 68%
10:00 +20°C° 0 mm 3 m/s 751 mmHg 65%
11:00 +21°C° 0 mm 3 m/s 751 mmHg 61%
12:00 +22°C° 0 mm 3 m/s 751 mmHg 58%
13:00 +23°C° 0 mm 2 m/s 751 mmHg 57%
14:00 +24°C° 0 mm 2 m/s 750 mmHg 56%
15:00 +24°C° 0 mm 2 m/s 750 mmHg 55%
16:00 +24°C° 0 mm 2 m/s 750 mmHg 58%
17:00 +24°C° 0 mm 2 m/s 750 mmHg 62%
18:00 +24°C° 0 mm 2 m/s 750 mmHg 66%
19:00 +21°C° 0 mm 2 m/s 750 mmHg 71%
20:00 +19°C° 0 mm 2 m/s 750 mmHg 76%
21:00 +18°C° 0 mm 1 m/s 750 mmHg 81%
22:00 +18°C° 0 mm 1 m/s 750 mmHg 82%
23:00 +16°C° 0 mm 1 m/s 750 mmHg 83%
Arată mai mult

Formular de consimțământ

Meteoprog și furnizorii noștri de servicii pot stoca și accesa date personale, precum cookies, identificatori de dispozitiv sau alte tehnologii similare pe dispozitivul dumneavoastră și procesa astfel de date pentru a personaliza conținutul și reclamele, dar și pentru a oferi caracteristici de social media și pentru a analiza traficul.

  • Stocarea și/sau accesarea informațiilor pe dispozitivul dumneavoastră

    Cookies, identificatori de dispozitiv sau alte informații pot fi stocate sau accesate pe dispozitiv în scopurile indicate mai sus.

  • Reclame și conținut personalizat, evaluarea reclamelor și a conținutului, informații despre audiențe și dezvoltarea produselor

    Reclamele și conținutul pot fi personalizate pe baza unui profil. Pot fi adăugate date suplimentare pentru a personaliza mai bine reclamele și conținutul. Performanța reclamelor și conținutului poate fi măsurată. Pot fi obținute informații despre utilizatorii care au văzut reclamele și conținutul. Aceste date pot fi utilizate pentru a dezvolta sau îmbunătăți experiența utilizatorilor, sistemele și software-ul.

Dând clic pe ‘Sunt de acord’, permiteți utilizarea cookie-urilor menționate, a identificatorilor de dispozitiv, balizelor web sau altor tehnologii similare. Setările pot fi modificate din browser-ul dispozitivului dumneavoastră.

În anumite scopuri, interesele legitime pot prima asupra consimțământului. Puteți citi mai multe informații în acest sens în Politica privind Confidențialitatea Datelor și Cookie.